Showing default

QIANFAN-20, 61553

Orbit data source: Space-Track

QIANFAN-20, 61553 is a Chinese payload satellite in LEO that was launched on Tue, 15 Oct 2024 UTC via a CHANG ZHENG 6A launch vehicle from the Taiyaun Space Center, China (TSC). Payload-class satellites include a variety of spacecraft equipped with specific instruments for various scientific and technological missions. These include communications satellites like Starlink; space stations such as the ISS; scientific satellites like the Hubble; Earth observation satellites from companies like Planet Labs, Umbra, and HawkEye 360; GPS; miniature CubeSats for education and research; and military/defense satellites.

Loading next visibility...
Identifier
61553, 2024-185B
Orbit
LEO
Last TLE update
17 hours ago
Origin
Manufacturer
GESIH/SECM
Mission
Operational Commercial Communications
Bus & Motor
QIANFAN, Unknown motor
Mass
267 kg wet, ~267 kg dry
Launch date (UTC)
2024-10-15 (7 months ago)
Launch vehicle
CHANG ZHENG 6A
Launch site
Taiyaun Space Center, China (TSC)
Object type
Payload
Rocket body
Debris
Shape & HBR
Box + 1 Pan, 10 m
Radar Cross Section
13.200 m², Large (>1 m²)

Expand to show TLE details & history

TLE from 17 hours ago
0 QIANFAN-20
1 61553U 24185B   25128.90377925  .00000613  00000-0  34899-3 0  9996
2 61553  88.9814 102.9887 0005115 339.9589  20.1393 14.08606032 38822
Epoch: 2025-05-08T21:41Z
Definitive object data (Epoch: 2025-05-08T21:41:26.527Z)
Latitude
-0.00001°
Longitude
-89.33942°
Altitude
863.704 km
Speed
7.422 km/s
True Right ascension
06h 51m 57s
True Declination
0° 00' 00"
Sunlit
Object was in daylight at TLE epoch
Visualization TLE readout
Latitude
-70.97571°
Longitude
-92.35861°
Altitude
888.187 km
Speed
7.408 km/s
Apparent Right ascension
09h 21m 13s
Apparent Declination
-59° 22' 54"
Sunlit
Object is in daylight
Visualization observer readout
Local Sidereal Time
22:34:21
Azimuth
155.442° SSE
Elevation
-67.385°
Doppler factor
1
Orbital elements
Apogee altitude
864.816 km
Perigee altitude
857.411 km
Semi-major axis
7,239.25 km
Eccentricity
0.0005115
Inclination
88.9814°
RAAN
102.9887°
Arg. of periapsis
339.9589°
True anomaly
20.15949°
Mean anomaly
20.1393°
Eccentric anomaly
20.1494°
Mean motion
3.52373 °/min
BSTAR
0.00034899
Orbital period
102.16 mins
Loading maneuver chart data...
Loading SW <> Apogee altitude chart data...
Loading historical data...
Loading historical data...
Loading historical data...
Loading historical data...
Loading historical data...
Loading historical data...
Loading historical data...

QIANFAN-20 Visibility forecast

Observer location: undefined°, undefined°

Span
Click to sort rows by Start time (UTC) header in descending order
Start Az.
Max El. time (UTC)
Max El. Az.
Max El.
End time (UTC)
End Az.
8 mins2025-05-09 21:41:13.394Z130.6° SE2025-05-09 21:45:13.394Z78.438° E24.686°2025-05-09 21:49:13.394Z26.752° NE
9 mins2025-05-09 23:23:13.394Z215.156° SW2025-05-09 23:27:13.394Z275.57° WNW30.785°2025-05-09 23:32:13.394Z341.344° N
9 mins2025-05-10 10:05:13.394Z15.043° NNE2025-05-10 10:09:13.394Z82.124° E38.992°2025-05-10 10:14:13.394Z163.168° S
5 mins2025-05-10 11:49:13.394Z308.472° NW2025-05-10 11:51:13.394Z282.209° WNW18.001°2025-05-10 11:54:13.394Z246.81° WSW
|